Regional Weather Roundup
Issued by NWS

Home | Current Version | Previous Version | Graphics & Text | Print | Product List | Glossary On
Versions: 1 2 3 4 5 6 7 8 9 10 11 12 13 14 15 16 17 18 19 20 21 22 23 24 25 26 27
000
ASUS45 KSLC 200310
RWRUT

UTAH REGIONAL WEATHER ROUNDUP
NATIONAL WEATHER SERVICE SALT LAKE CITY UT
900 PM MDT THU OCT 19 2017

UTZ001>011-023>025-200400-

NORTHERN UTAH

CITY           SKY/WX    TMP DP  RH WIND       PRES   REMARKS
BRIGHAM CITY   PTCLDY    54  28  36 W5        29.80S
HILL AFB       CLOUDY    60  33  36 S9        29.81F
LOGAN          PTCLDY    54  25  32 SE8       29.79F
OGDEN          PTCLDY    61  34  36 SW6       29.79F
SALT LAKE CITY CLOUDY    61  36  39 SE9       29.80F
TOOELE VALLEY  MOCLDY    54  32  43 S8        29.80F
WENDOVER       CLEAR     50  24  36 CALM      29.77F
WEST JORDAN    MOCLDY    60  34  38 CALM      29.84S

$$

UTZ011>015-024>027-200400-

CENTRAL/NORTHEAST UTAH

CITY           SKY/WX    TMP DP  RH WIND       PRES   REMARKS
PROVO AIRPORT  CLOUDY    65  41  41 SE12      29.85F
MOAB/CANYONLAN PTCLDY    59  26  28 CALM      29.88S
DELTA          CLOUDY    64  34  32 SE10      29.84F
PRICE          MOCLDY    57  26  30 NE5       29.95S
RICHFIELD      PTCLDY    59  37  44 NW2       29.93S
ROOSEVELT      CLOUDY    45  27  49 SW3       29.94S
VERNAL         CLEAR     52  26  36 W8        29.92S

$$

UTZ013>016-019>022-027-200400-

SOUTHERN UTAH

CITY           SKY/WX    TMP DP  RH WIND       PRES   REMARKS
BRYCE CANYON   CLOUDY    52  32  46 S5        30.07S
CEDAR CITY     CLEAR     54  31  41 CALM      29.93S
MILFORD        PTCLDY    59  34  39 S12       29.88S
ST GEORGE      CLOUDY    71  30  21 S3        29.80S
HANKSVILLE     MOCLDY    63  28  27 NE6       29.89S
KANAB          CLEAR     57  30  35 CALM      29.96R
BLANDING         N/A     53  27  36 W8        30.11R

$$

REGIONAL REPORTS     COLORADO/ARIZONA

CITY           SKY/WX    TMP DP  RH WIND       PRES   REMARKS
CRAIG, CO      CLOUDY    51  31  46 SW7       29.98S
GRAND JUNCTION CLOUDY    62  26  25 S8        29.91F
RIFLE, CO      PTCLDY    60  30  32 VRB3      29.98R
MONTROSE, CO   CLEAR     55  31  39 VRB3      30.02S
CORTEZ, CO     CLOUDY    50  30  46 NE6       30.04R
COLORADO CITY    N/A     59  34  38 CALM      29.96R
PAGE, AZ       CLOUDY    72  37  28 S7        29.88S
GRAND CANYON   MOCLDY    52  30  43 SW5       30.05R
KINGMAN, AZ    CLEAR     62  33  33 S10       29.87R
FLAGSTAFF, AZ  CLEAR     50  28  42 CALM      30.10R

$$

REGIONAL REPORTS    NEVADA/IDAHO/WYOMING

CITY           SKY/WX    TMP DP  RH WIND       PRES   REMARKS
LAS VEGAS, NV  CLEAR     81  25  12 S12       29.74R
ELY, NY        CLEAR     49  24  37 S12       29.89F
ELKO, NV       CLEAR     53  17  24 N6        29.76F
POCATELLO, ID  CLEAR     63  16  16 S25G33    29.73F
BURLEY, ID     CLEAR     61  18  18 S17       29.68S
FORT BRIDGER,  CLOUDY    56  24  30 SW9       29.98S
EVANSTON, WY   CLOUDY    54  28  36 S8        29.96F
ROCK SPRINGS,  CLEAR     55  22  27 S8        29.94F
KEMMERER, WY   CLOUDY    52  10  19 SW3       29.97S

$$




USA.gov is the U.S. government's official web portal to all federal, state and local government web resources and services.